Location: Tamazert
(32.6352°N, 5.2072°W)
Time: 05:17:38
(UTC+00:00)

Vanguard 2 - Pass Details

Date: 04 October 2022
Orbit: 553 x 2933 km, 32.9° (Epoch: 26 November)

Event Time Altitude Azimuth Distance (km) Brightness Sun altitude
Rises 15:15:39 0° 272° (W) 5,191 12.5 32.4°
Reaches altitude 10° 15:18:35 10° 273° (W) 4,462 12.4 31.8°
Maximum altitude 15:32:10 90° 3° (N) 2,667 10.8 29.3°
Drops below altitude 10° 15:50:21 10° 97° (E) 5,745 11.6 25.9°
Sets 15:54:43 0° 97° (E) 6,689 11.8 25.0°
